User: anonymous   Login
Location: Clatteringshaws Loch
(55.0508°N, 4.2860°W)
Time: 05:24:36
(UTC+01:00)
Language:

Sapphire - Orbit

View from above orbital plane
View from above orbital plane
View from above satellite
View from above satellite

Ground track
Ground track

The orbit data is extracted from the following two-line orbital elements,

1 26932U 01043D   15090.25449698  .00000163  00000-0  94806-4 0  9993
2 26932 067.0580 019.3793 0007899 255.3123 104.7103 14.30123888704696
Epoch (UTC): 31 March 2015 06:06:28
Eccentricity: 0.0007899
inclination: 67.0580°
perigee height: 785 km
apogee height: 797 km
right ascension of ascending node: 19.3793°
argument of perigee: 255.3123°
revolutions per day: 14.30123888
mean anomaly at epoch: 104.7103°
orbit number at epoch: 70469

The dashed part of the orbit path shows where the satellite is in the earth's shadow,  

DLR